sat.trackr.live / text

‹ back to catalog

STARLINK-34980

NORAD 65258 · 2025-179Z

PAYLOAD ACTIVE UNKNOWN

§ Identity

Operator
Country
US
Launch date
2025-08-18
Launch site
AFWTR
Launch vehicle
Mass (kg)
RCS (m²)

Purposes: comms

External: N2YO · Heavens-Above · Gunter

§ Orbital elements

Epoch: 2026-09-20T20:53:25.943424Z

Period
93.91 min
Inclination
97.2809°
Eccentricity
0.0000550
Mean motion
15.33464277 rev/d
Perigee alt
465.1 km
Apogee alt
465.9 km
Semi-major
6,843.6 km
B*
5.0455e-4
RAAN
303.0994°
Arg perigee
123.9778°
Mean anomaly
236.1518°
Rev number
6,136

§ Raw data

STARLINK-349801 65258U 25179Z   26263.87043916  .00016259  00000+0  50455-3 0  99912 65258  97.2809 303.0994 0000550 123.9778 236.1518 15.33464277 61362

JSON: /api/v1/satellites/65258 · /tle

For live sub-satellite position, see the globe view (requires WebGL).

§ Visibility from observer

Set your observer location to see the next 7 days of passes ≥ 10°. The values pass through the URL so the page stays shareable.

No JS? Fill the form by hand. The geolocation button needs JavaScript.